Amsterdam, Netherlands

8:13 PM CET on February 22, 2017 (GMT +0100)
Schiphol

Weather History for EHAM - December, 2012

Change the Weather History Date:

Thursday, December 20, 2012

  Actual Average Record
Temperature  
Mean Temperature 38 °F -  
Max Temperature 39 °F 41 °F 54 °F (2015)
Min Temperature 37 °F 33 °F 15 °F (2010)
Degree Days  
Heating Degree Days 27    
Moisture  
Dew Point 35 °F    
Average Humidity 88    
Maximum Humidity 93    
Minimum Humidity 67    
Precipitation  
Precipitation 0.08 in - - ()
Sea Level Pressure  
Sea Level Pressure 29.88 in    
Wind  
Wind Speed 15 mph ()    
Max Wind Speed 20 mph    
Max Gust Speed 31 mph    
Visibility 4.6 miles    
Events Rain    
Averages and records for this station are not official NWS values.
T = Trace of Precipitation, MM = Missing Value Source: Averaged Metar Reports

Daily Weather History Graph

Daily Weather History Graph

Search for Another Location

Airport or City:

Trip Planner

Search our weather history database for the weather conditions in past years. The results will help you decide how hot, cold, wet, or windy it might be!

Date:

Astronomy

Dec. 20, 2012 Rise Set
Actual Time 8:47 AM CET 4:29 PM CET
Civil Twilight 8:06 AM CET 5:10 PM CET
Nautical Twilight 7:22 AM CET 5:54 PM CET
Astronomical Twilight 6:40 AM CET 6:36 PM CET
Moon 12:20 PM CET (12/20) 12:34 AM CET (12/20)
Length of Visible Light 9h 04m
Length of Day
7h 41m
First Quarter, 52% of the Moon is Illuminated
Dec 20
First Quarter
Dec 28
Full
Jan 5
Last Quarter
Jan 11
New
Jan 19
First Quarter

Hourly Weather History & Observations

Time (CET) Temp. Windchill Dew Point Humidity Pressure Visibility Wind Dir Wind Speed Gust Speed Precip Events Conditions
12:25 AM 39.2 °F 31.6 °F 37.4 °F 93% 30.12 in 3.1 mi ESE 12.7 mph - N/A   Scattered Clouds
12:55 AM 39.2 °F 31.6 °F 37.4 °F 93% 30.09 in 3.1 mi ESE 12.7 mph - N/A   Scattered Clouds
1:00 AM 39 °F - 37 °F 91% 30.12 in 3 mi ESE 11.2 mph - -   Mist
1:25 AM 39.2 °F 31.2 °F 37.4 °F 93% 30.09 in 3.1 mi ESE 13.8 mph - N/A   Mostly Cloudy
1:55 AM 39.2 °F 31.2 °F 37.4 °F 93% 30.09 in 3.1 mi ESE 13.8 mph - N/A   Mostly Cloudy
2:25 AM 39.2 °F 30.8 °F 35.6 °F 87% 30.06 in 3.1 mi ESE 15.0 mph - N/A   Partly Cloudy
2:55 AM 39.2 °F 30.8 °F 35.6 °F 87% 30.06 in 3.1 mi ESE 15.0 mph - N/A   Partly Cloudy
3:25 AM 39.2 °F 30.8 °F 35.6 °F 87% 30.04 in 3.7 mi ESE 15.0 mph - N/A   Partly Cloudy
3:55 AM 39.2 °F 30.8 °F 35.6 °F 87% 30.04 in 4.3 mi ESE 15.0 mph - N/A   Partly Cloudy
4:00 AM 38 °F - 36 °F 87% 30.05 in 4 mi East 13.4 mph - -   Mist
4:25 AM 37.4 °F 28.9 °F 35.6 °F 93% 30.04 in 3.7 mi ESE 13.8 mph - N/A   Partly Cloudy
4:55 AM 37.4 °F 28.9 °F 35.6 °F 93% 30.01 in 3.7 mi ESE 13.8 mph - N/A   Partly Cloudy
5:25 AM 37.4 °F 28.9 °F 35.6 °F 93% 30.01 in 4.3 mi ESE 13.8 mph - N/A   Partly Cloudy
5:55 AM 37.4 °F 28.5 °F 35.6 °F 93% 30.01 in 4.3 mi ESE 15.0 mph - N/A   Partly Cloudy
6:25 AM 37.4 °F 27.5 °F 35.6 °F 93% 29.98 in 5.0 mi ESE 18.4 mph - N/A   Unknown
6:55 AM 37.4 °F 28.5 °F 33.8 °F 87% 29.98 in 5.6 mi ESE 15.0 mph - N/A   Unknown
7:25 AM 37.4 °F 27.8 °F 33.8 °F 87% 29.95 in - ESE 17.3 mph - N/A   Clear
7:55 AM 37.4 °F 27.8 °F 33.8 °F 87% 29.95 in - East 17.3 mph - N/A   Clear
8:25 AM 37.4 °F 27.8 °F 33.8 °F 87% 29.95 in - ESE 17.3 mph - N/A   Clear
8:55 AM 37.4 °F 27.5 °F 33.8 °F 87% 29.92 in - ESE 18.4 mph - N/A   Clear
9:25 AM 37.4 °F 27.8 °F 33.8 °F 87% 29.92 in - ESE 17.3 mph - N/A   Clear
9:55 AM 37.4 °F 27.2 °F 33.8 °F 87% 29.92 in - ESE 19.6 mph - N/A   Clear
10:00 AM 38 °F - 33 °F 76% 29.92 in 9 mi ESE 17.9 mph - -   Overcast
10:25 AM 37.4 °F 27.5 °F 33.8 °F 87% 29.89 in - ESE 18.4 mph - N/A   Clear
10:55 AM 39.2 °F 30.2 °F 33.8 °F 81% 29.89 in - ESE 17.3 mph - N/A   Clear
11:25 AM 39.2 °F 29.8 °F 33.8 °F 81% 29.89 in - ESE 18.4 mph - N/A   Clear
11:55 AM 39.2 °F 29.8 °F 33.8 °F 81% 29.86 in 6.2 mi ESE 18.4 mph 31.1 mph N/A   Partly Cloudy
12:25 PM 39.2 °F 29.8 °F 33.8 °F 81% 29.86 in 6.2 mi ESE 18.4 mph - N/A   Mostly Cloudy
12:55 PM 39.2 °F 30.2 °F 33.8 °F 81% 29.83 in 6.2 mi ESE 17.3 mph - N/A   Mostly Cloudy
1:00 PM 40 °F - 33 °F 67% 29.85 in 12 mi ESE 17.9 mph - -   Partly Cloudy
1:25 PM 39.2 °F 29.8 °F 32.0 °F 75% 29.83 in 6.2 mi ESE 18.4 mph - N/A   Overcast
1:55 PM 39.2 °F 29.8 °F 32.0 °F 75% 29.83 in 6.2 mi ESE 18.4 mph - N/A   Overcast
2:25 PM 39.2 °F 29.8 °F 32.0 °F 75% 29.80 in 6.2 mi ESE 18.4 mph - N/A Rain Light Rain
2:55 PM 39.2 °F 29.6 °F 33.8 °F 81% 29.80 in 5.6 mi ESE 19.6 mph - N/A Rain Light Rain
3:25 PM 39.2 °F 29.6 °F 33.8 °F 81% 29.77 in 5.0 mi ESE 19.6 mph - N/A Rain Light Rain
3:55 PM 39.2 °F 29.6 °F 33.8 °F 81% 29.77 in 5.0 mi ESE 19.6 mph - N/A Rain Light Rain
4:00 PM 38 °F - 35 °F 83% 29.79 in 6 mi ESE 20.1 mph - - Rain Light Rain
4:25 PM 37.4 °F 27.5 °F 35.6 °F 93% 29.77 in 5.0 mi ESE 18.4 mph - N/A Rain Light Rain
4:55 PM 37.4 °F 27.8 °F 35.6 °F 93% 29.77 in 5.0 mi ESE 17.3 mph - N/A Rain Light Rain
5:25 PM 37.4 °F 28.2 °F 35.6 °F 93% 29.77 in 4.3 mi ESE 16.1 mph - N/A Rain Light Rain
5:55 PM 37.4 °F 27.8 °F 35.6 °F 93% 29.77 in 5.0 mi ESE 17.3 mph - N/A Rain Light Rain
6:25 PM 37.4 °F 28.2 °F 35.6 °F 93% 29.74 in 3.7 mi ESE 16.1 mph - N/A Rain Light Rain
6:55 PM 37.4 °F 28.2 °F 35.6 °F 93% 29.74 in 3.1 mi ESE 16.1 mph - N/A Rain Light Rain
7:00 PM 38 °F - 36 °F 89% 29.76 in 4 mi ESE 15.7 mph - - Rain Light Rain
7:25 PM 37.4 °F 27.8 °F 35.6 °F 93% 29.74 in 3.7 mi ESE 17.3 mph - N/A Rain Light Rain
7:55 PM 37.4 °F 28.2 °F 35.6 °F 93% 29.74 in 3.7 mi ESE 16.1 mph - N/A Rain Light Rain
8:25 PM 37.4 °F 27.8 °F 35.6 °F 93% 29.74 in 3.7 mi ESE 17.3 mph - N/A Rain Light Rain
8:55 PM 37.4 °F 28.2 °F 35.6 °F 93% 29.74 in 4.3 mi ESE 16.1 mph - N/A Rain Light Rain
9:25 PM 37.4 °F 28.5 °F 35.6 °F 93% 29.74 in 3.1 mi ESE 15.0 mph - N/A Rain Light Rain
9:55 PM 37.4 °F 27.8 °F 35.6 °F 93% 29.74 in 3.7 mi ESE 17.3 mph - N/A Rain Light Rain
10:00 PM 37 °F - 36 °F 92% 29.74 in 4 mi ESE 15.7 mph - - Rain Light Rain
10:25 PM 37.4 °F 27.5 °F 35.6 °F 93% 29.71 in 3.7 mi ESE 18.4 mph - N/A Rain Light Rain
10:55 PM 37.4 °F 27.8 °F 35.6 °F 93% 29.71 in 3.7 mi ESE 17.3 mph - N/A Rain Light Rain
11:25 PM 37.4 °F 27.8 °F 35.6 °F 93% 29.71 in 3.1 mi ESE 17.3 mph - N/A Rain Light Rain
11:55 PM 37.4 °F 28.2 °F 35.6 °F 93% 29.71 in 3.1 mi ESE 16.1 mph - N/A Rain Light Rain